Location: Beccas
(43.4309°N, 0.1528°E)
Time: 11:05:13
(UTC+00:00)

Cosmos 2263 Rocket - Pass Details

Date: 15 October 2021
Orbit: 825 x 847 km, 71.0° (Epoch: 02 December)

Event Time Altitude Azimuth Distance (km) Brightness Sun altitude
Rises 19:19:44 0° 335° (NNW) 3,374 5.8 -23.2°
Reaches altitude 10° 19:22:11 10° 336° (NNW) 2,435 5.0 -23.6°
Maximum altitude 19:27:46 86° 64° (ENE) 833 2.0 -24.6°
Enters shadow 19:28:58 57° 149° (SSE) 964 2.2 -24.8°
